COSMOS 1850

Satellite information

Favourite Embed

Satellite Type and Status

PAYLOADIN ORBIT

Key statistics

Satellite COSMOS 1850 at a glance.

Uptime

13907

Days in orbit

Revolutions

≈ 14.3

Per day

Orbit

LEO

Low Earth Orbit

Inclination

74.0

Latest

Satellite identification and parameters

Extended collection of information and parameters for COSMOS 1850.

Object identification

Identified? True

Debris? False

Object name: COSMOS 1850

International designator: 1987-049A

Object number (NORAD): 18095

Object ID (CCSDS): 18095

Country: COMMONWEALTH OF INDEPENDENT STATES (CIS)

Current information (Y/N): Y

RCS size: LARGE

Orbital parameters

Period: 100.419 minutes

Inclination: 74.0402 deg

SMA: 7156.554 km

Apoapsis: 788.376 km

Periapsis: 768.461 km

RAAN: 330.9875 deg

Eccentricy: 0.0013914

Argument of periapsis: 68.9389 deg

Mean anomaly: 291.3249 deg

Mean motion: 14.33992432 rev/day

Mean motion (dot): 0.00000091 rev/day2

B* drag term: 0.00004192 1/REarth

Two-line elements (TLE)

Creation date: July 5, 2025, 5:45 p.m.

Reference frame: TEME

Reference center: EARTH

Epoch: July 5, 2025, 2:17 p.m. UTC

TLE line 0: 0 COSMOS 1850

TLE line 1: 1 18095U 87049A 25186.59544890 .00000091 00000-0 41920-4 0 9997

TLE line 2: 2 18095 74.0402 330.9875 0013914 68.9389 291.3249 14.33992432990219

Live tracking on map

Real-time ground track for satellite COSMOS 1850.

In-orbit conjunctions

A list of the most updated potential collisions computed for object COSMOS 1850.

Target Orbit TCA Probability of collision Miss distance Type
FENGYUN 1C DEB SSO 2025-01-01 19:59:40 0.0002318434 240.0 (m) DEBRIS
FENGYUN 1C DEB SSO 2024-12-09 01:52:54 0.0005608263 488.0 (m) DEBRIS
DMSP 5D-2 F13 DEB SSO 2024-10-10 12:12:34 0.0001890824 618.0 (m) DEBRIS
CZ-6A DEB SSO 2024-10-04 06:42:30 0.0006168417 106.0 (m) DEBRIS
NOAA 16 DEB SSO 2024-08-12 03:55:23 0.0001509663 681.0 (m) DEBRIS

Associated space launch

Military communications satellite

COSMOS 1850 was lifted into orbit during the mission ‘Kosmos-3M | Strela-2M 42’, on board a Kosmos-3M space rocket.

The launch took place on June 9, 1987, 2:45 p.m. from 132/1 (132L).

For more information about the launch, click the button.

Launch to space Kosmos-3M | Strela-2M 42
Kosmos-3M | Strela-2M 42

Agency: N/A

Status: Launch Successful

Launch date: June 9, 1987, 2:45 p.m. UTC

Rocket: Kosmos-3M

Launch pad: 132/1 (132L)

Location: Plesetsk Cosmodrome, Russian Federation

...

Latest news about this satellite

There are no fresh news available about this satellite. Check back as we update our databases every day.


Newsletter sign-up

Weekly statistics, charts and insights to help you stay on top of the space industry.